Location: Casale Santa Palomba
(41.7000°N, 12.5833°E)
Time: 02:42:18
(UTC+00:00)

Daily predictions for brighter satellites

Satellite Brightness Start Highest point End
(mag) Time Altitude Azimuth Time Altitude Azimuth Time Altitude Azimuth
CENTAUR R/B 4.1 02:14:21 43° ENE 02:14:21 43° ENE 02:21:36 10° ESE
ATLAS 2AS CENTAUR R/B 4.3 02:27:57 31° SE 02:29:54 35° ESE 02:36:51 10° NE
Atlas Centaur 2 4.4 02:44:04 20° SE 02:44:04 20° SE 02:46:54 10° ESE
BREEZE-M DEB (TANK) 4.4 02:45:10 75° ENE 02:45:10 75° ENE 03:05:16 10° ENE
Lacrosse 5 4.1 02:52:48 22° ENE 02:52:48 22° ENE 02:54:51 10° ENE
USA 238 DEB 4.3 02:58:22 54° SE 02:58:22 54° SE 03:03:59 10° SE
USA 238 4.3 02:58:25 55° SE 02:58:25 55° SE 03:04:04 10° SE
Cosmos 2263 Rocket 3.9 03:01:26 25° NE 03:01:26 25° NE 03:03:45 10° NNE
SJ 16-02 4.0 03:08:47 16° NE 03:08:47 16° NE 03:09:48 10° NE
Cosmos 1709 Rocket 4.4 03:14:02 10° S 03:20:16 61° E 03:26:33 10° NNE
CZ-4C R/B 3.2 03:25:49 32° SSE 03:27:06 37° ESE 03:32:10 10° NE
Cosmos 1603 4.0 03:30:28 57° SSE 03:30:28 57° SSE 03:34:53 10° SSE
ATLAS 3B R/B 3.9 03:30:35 24° N 03:33:58 38° NE 03:40:34 10° ESE
Cosmos 1943 3.2 03:36:00 78° SE 03:36:00 78° SE 03:41:18 10° SSE
Lacrosse 4 Rocket 2.5 03:38:11 44° E 03:38:11 44° E 03:41:37 10° SE
Cosmos 1461 4.2 03:52:16 36° S 03:52:16 36° S 03:54:59 10° SSE
ALOS 3.4 03:50:47 10° N 04:02:13 - SSW 03:53:16 32° N
Cosmos 923 Rocket 4.3 03:53:37 35° N 03:55:50 66° ENE 04:01:07 10° SSE
deb Chang Zheng 4 4.0 03:52:24 10° NNE 03:56:43 60° ESE 04:01:00 10° S
METEOR-M 4.1 03:54:52 10° NNE 04:00:15 85° ESE 04:05:36 10° SSW
NOSS 3-4 (A) 3.4 04:00:50 55° WNW 04:01:02 56° NW 04:07:12 10° NNE
NOSS 3-4 (C) 3.4 04:00:54 56° WNW 04:01:09 56° NW 04:07:20 10° NNE
NOSS 3-2 (C) 4.2 04:00:07 44° WNW 04:02:18 56° WSW 04:10:39 10° SSE
CZ-4B R/B 4.0 03:59:34 10° SSE 03:59:53 12° SSE 03:59:53 12° SSE
Milstar 3 Cent rocket 4.2 04:00:16 22° SW 04:04:15 35° S 04:15:44 10° ESE
CENTAUR R/B 3.3 04:01:35 41° WNW 04:04:20 55° WSW 04:12:54 10° SSE
Meteor 2-17 Rocket 4.4 04:05:55 10° S 04:11:57 84° E 04:18:03 10° N
Cosmos 158 Rocket 3.7 04:10:38 39° NNW 04:12:32 89° E 04:17:33 10° SSE
Cosmos 1515 Rocket 4.2 04:09:38 10° N 04:14:03 56° E 04:18:25 10° SSE
SL-4 R/B 3.8 04:15:03 19° N 04:15:03 19° N 04:17:08 10° NE
SKYMED 2 3.8 04:11:39 10° SSE 04:15:56 68° ENE 04:19:24 16° N
Cosmos 1844 Rocket 3.2 04:11:00 10° S 04:16:33 60° ESE 04:22:07 10° NNE
GPS 2-04 Rocket1 3.7 04:16:28 33° SSW 04:16:53 34° S 04:20:23 10° ESE
Cosmos 1151 Rocket 2.8 04:17:01 65° W 04:17:05 65° W 04:21:19 10° S
Cosmos 1782 2.9 04:16:34 29° N 04:18:33 78° E 04:22:34 10° S
ERS-2 2.9 04:16:47 10° S 04:19:17 39° SSW 04:19:17 39° SSW
ATLAS 2AS CENTAUR R/B 3.0 04:15:30 24° WSW 04:20:35 60° NW 04:28:23 10° NNE
COSMOS 2455 4.5 04:17:44 10° S 04:23:06 35° ESE 04:28:30 10° NE
FALCON 9 DEB 4.3 04:24:40 29° NNE 04:24:40 29° NNE 04:26:36 10° NE
Cosmos 1680 Rocket 3.5 04:20:02 20° NNW 04:23:49 87° ENE 04:29:07 10° SSE
SJ-12 3.7 04:20:25 10° N 04:24:29 85° WNW 04:28:32 10° SSW
Cosmos 1844 4.1 04:24:46 10° S 04:30:13 62° ESE 04:35:43 10° NNE
Atlas Centaur 2 3.7 04:26:40 15° SW 04:30:41 27° S 04:35:14 10° SE
RESURS DK-1 2.2 04:26:56 11° SSW 04:30:51 79° WNW 04:35:01 10° NNE
CRYOSAT 2 4.2 04:26:14 10° S 04:31:03 68° W 04:35:55 10° N
Lacrosse 5 2.3 04:32:03 37° WNW 04:33:07 42° NW 04:37:57 10° NE
ATLAS CENTAUR R/B 2.1 04:32:07 22° N 04:34:13 44° NE 04:38:00 10° SE
Cosmos 1500 Rocket 3.8 04:30:49 10° S 04:35:05 68° E 04:39:24 10° NNE
ADEOS 3.9 04:30:16 10° N 04:35:10 42° WNW 04:40:03 10° SW
Cosmos 1328 Rocket 3.8 04:35:40 33° NW 04:37:04 45° W 04:41:17 10° SSW
Meteor PRIRODA 3.5 04:33:40 10° NNE 04:37:25 87° WNW 04:41:09 10° SSW
Meteor 2-6 Rocket 4.4 04:33:28 10° N 04:38:51 69° E 04:44:17 10° SSE
OAO 2 Rocket 4.3 04:37:06 22° WSW 04:39:46 39° S 04:44:30 10° ESE
H-2A R/B 3.3 04:37:28 10° NNE 04:41:21 61° E 04:45:10 10° S
Cosmos 2263 Rocket 3.5 04:43:11 21° NW 04:43:11 21° NW 04:46:47 10° N
Cosmos 2112 Rocket 4.0 04:38:54 14° NNW 04:43:35 74° WSW 04:48:53 10° S
SJ 16-02 2.7 04:45:52 21° NW 04:45:52 21° NW 04:48:10 10° N
Okean O Rocket 4.4 04:41:34 10° NE 04:45:00 22° E 04:48:25 10° SE
Gbstr 26 Del rocket 2.7 04:43:33 33° NW 04:45:08 72° NNE 04:49:07 10° ESE
Meteor 1-4 Rocket 3.8 04:46:48 23° SW 04:46:48 23° SW 04:48:39 10° SSW
ATLAS 5 CENTAUR R/B 4.4 04:44:27 10° SSE 04:47:18 19° ESE 04:50:19 10° ENE
Nadezhda 3 Rocket 4.4 04:45:03 10° N 04:51:21 68° E 04:57:31 10° SSE
Cosmos 1898 Rocket 3.6 04:46:39 10° SW 04:51:51 55° WNW 04:57:06 10° NNE
CZ-2C R/B 4.5 04:49:09 10° SE 04:53:52 30° ENE 04:58:30 10° N
Sich 1 4.4 04:51:51 10° SSE 04:56:01 42° E 05:00:12 10° NNE
FALCON 9 DEB 4.1 04:56:35 25° NW 04:56:55 26° NNW 04:59:41 10° NNE
FALCON 9 DEB 4.2 04:56:45 24° NW 04:57:03 25° NNW 04:59:47 10° NNE
Cosmos 1743 Rocket 3.5 04:54:37 10° SSW 04:59:01 63° W 05:03:29 10° N
Envisat 3.4 04:55:33 10° NNE 05:00:37 66° ESE 05:05:39 10° S
Cosmos 1408 Rocket 4.3 04:57:10 10° SW 05:01:08 31° WNW 05:05:07 10° NNW
SJ-7 4.4 04:57:55 10° NNE 05:02:00 87° ESE 05:06:07 10° SSW
H-2A R/B 3.0 05:00:11 10° NNE 05:03:58 56° E 05:07:43 10° S
COSMO-SKYMED 1 3.2 05:00:05 10° SSW 05:04:03 35° W 05:07:59 10° NNW
NOSS 7 (E) 4.4 05:01:02 10° SW 05:04:59 64° NW 05:08:11 10° NNE
Cosmos 1937 Rocket 3.6 05:03:56 10° SW 05:08:56 52° WNW 05:14:01 10° N
MOS 1 Rocket 3.3 05:09:36 10° S 05:14:20 74° W 05:19:26 10° NNW
Cosmos 2154 Rocket 3.9 05:08:33 10° SSW 05:14:45 72° W 05:21:01 10° N
Lacrosse 4 Rocket 3.2 05:14:32 14° W 05:15:34 15° WSW 05:18:10 10° SW
CZ-4C R/B 2.8 05:11:05 10° WSW 05:15:35 34° NW 05:20:58 10° NNE
Cosmos 1833 Rocket 4.4 05:11:29 10° N 05:16:21 29° NE 05:21:10 10° ESE
Cosmos 1689 Rocket 3.4 05:14:57 10° SSW 05:17:11 20° W 05:18:12 17° WNW
Cosmos 1805 Rocket 3.5 05:13:46 10° S 05:18:12 81° W 05:22:40 10° N
CZ-4B R/B 3.9 05:14:46 10° N 05:18:38 29° WNW 05:22:25 10° SW
Meteor 1-27 Rocket 4.0 05:14:38 10° N 05:20:26 77° E 05:26:19 10° SSE
Meteor 1-10 Rocket 4.2 05:16:53 10° NNW 05:22:23 63° W 05:27:55 10° S
Aureole 2 Rocket 2.2 05:20:37 10° SW 05:22:57 33° WNW 05:25:19 10° N
ATLAS 3B R/B 3.0 05:18:09 10° NW 05:24:53 53° WSW 05:31:52 10° S
Cosmos 1666 Rocket 4.4 05:21:08 10° S 05:25:20 55° E 05:29:35 10° NNE
Cosmos 1862 3.9 05:22:10 10° SW 05:25:52 34° WNW 05:29:37 10° N
COSMOS 2406 4.4 05:21:07 10° NNW 05:26:35 42° ENE 05:32:01 10° SE
Genesis I 4.4 05:25:08 10° W 05:28:09 22° NW 05:31:13 10° N
YAOGAN 6 2.6 05:26:06 10° N 05:29:32 53° WNW 05:32:54 10° SSW
Cosmos 2341 Rocket 4.1 05:24:32 10° S 05:30:44 82° E 05:36:58 10° N
Cosmos 2278 Rocket 3.5 05:26:38 10° S 05:31:59 46° ESE 05:37:23 10° NE
PSLV R/B 4.4 05:34:45 10° N 05:38:16 34° WNW 05:41:40 10° SW
SL-8 Rocket 4.3 05:32:15 10° S 05:38:21 72° E 05:44:30 10° NNE
SL-24 DEB 4.5 05:36:58 10° S 05:41:37 53° W 05:46:18 10° NNW
Cosmos 405 Rocket 3.8 05:38:52 10° SW 05:41:51 23° WNW 05:44:52 10° NNW
BREEZE M DEB (TANK) 2.6 05:35:16 10° WSW 05:42:29 61° NNW 05:45:09 10° NE
NOAA 12 4.1 05:42:11 10° NNE 05:47:29 83° WNW 05:52:43 10° SSW
